MONITOR-4 (RS57S)

Last updated on Sun Dec 07 2025 00:03:11 GMT+0000 (Coordinated Universal Time)

1 57182U 23091S 25340.62699405 .00018626 00000+0 78515-3 0 9994 2 57182 97.5369 37.9525 0014207 60.9855 299.2804 15.23282039134931
UTC large
Height (km)
Speed (km/s)
/
Latitude / Longitude
Inclination (degrees)
Orbital Period (minutes)
Azimuth
Elevation
Range (km)
Doppler Factor

Next 0 passes for location: London (51.5072 / 0.1276)

Sorry there are no passes over London.